Moose, Wyoming, United States (83012)
Lat: 43.66N, Lon: 110.72W
Wx Zone: WYZ013
Local Info
Past Weather Observations for Monday, April 14, 2014

NOTE: This archive is for the closest National Weather Service station to Moose. Information may differ from the station used for current weather conditions.

Time Weather Temperature Dewpoint Humidity Pressure Winds Precip Visibility
23:55
Clear
28°F / -2°C 16°F / -9°C 59% 30.12 in
(1020 mb)
W 3.5 mph
(W 6 kph)
-
23:35
Clear
28°F / -2°C 16°F / -9°C 59% 30.12 in
(1020 mb)
Calm -
23:15
Clear
30°F / -1°C 16°F / -9°C 55% 30.12 in
(1020 mb)
Calm -
22:55
Clear
32°F / 0°C 9°F / -13°C 37% 30.12 in
(1020 mb)
Calm -
22:35
Clear
36°F / 2°C 7°F / -14°C 30% 30.12 in
(1020 mb)
Calm -
22:15
Clear
34°F / 1°C 9°F / -13°C 35% 30.12 in
(1020 mb)
Calm -
21:55
Clear
34°F / 1°C 10°F / -12°C 38% 30.12 in
(1020 mb)
SE 3.5 mph
(SE 6 kph)
-
21:35
Clear
34°F / 1°C 10°F / -12°C 38% 30.12 in
(1020 mb)
S 5.8 mph
(S 9 kph)
-
21:15
Clear
36°F / 2°C 9°F / -13°C 32% 30.15 in
(1021 mb)
S 8.1 mph
(S 13 kph)
-
20:55
Clear
36°F / 2°C 7°F / -14°C 30% 30.15 in
(1021 mb)
S 4.6 mph
(S 7 kph)
-
20:35
Clear
36°F / 2°C 10°F / -12°C 35% 30.15 in
(1021 mb)
S 8.1 mph
(S 13 kph)
- 10SM
20:15
Clear
36°F / 2°C 9°F / -13°C 32% 30.12 in
(1020 mb)
SW 12.7 mph
(SW 20 kph)
- 10SM
19:55
Clear
39°F / 4°C 5°F / -15°C 24% 30.12 in
(1020 mb)
SSW 15 mph
(SSW 24 kph)
- 10SM
18:51
Clear
39°F / 4°C 10°F / -12°C 30% 30.12 in
(1020 mb)
Calm - 10SM
17:51
Clear
43°F / 6°C 9°F / -13°C 24% 30.12 in
(1020 mb)
Calm - 10SM
15:51
Clear
43°F / 6°C 9°F / -13°C 24% 30.18 in
(1022 mb)
Calm -
14:51
Clear
41°F / 5°C 7°F / -14°C 24% 30.18 in
(1022 mb)
SSE 11.5 mph
(SSE 19 kph)
- 10SM
13:54
Clear
41°F / 5°C 3°F / -16°C 20% 30.21 in
(1023 mb)
SW 8.1 mph
(SW 13 kph)
- 10SM
12:51
Clear
36°F / 2°C 10°F / -12°C 35% 30.21 in
(1023 mb)
Calm - 10SM
11:52
Clear
30°F / -1°C 12°F / -11°C 47% 30.24 in
(1024 mb)
N 8.1 mph
(N 13 kph)
- 10SM
10:52
Clear
28°F / -2°C 10°F / -12°C 47% 30.27 in
(1025 mb)
Calm - 10SM
09:51
Clear
25°F / -4°C 9°F / -13°C 50% 30.3 in
(1026 mb)
Calm - 10SM
08:52
Clear
19°F / -7°C 9°F / -13°C 63% 30.33 in
(1027 mb)
N 4.6 mph
(N 7 kph)
- 10SM
07:53
Clear
16°F / -9°C 9°F / -13°C 73% 30.33 in
(1027 mb)
N 6.9 mph
(N 11 kph)
- 10SM
06:55
Clear
10°F / -12°C 5°F / -15°C 79% 30.33 in
(1027 mb)
N 8.1 mph
(N 13 kph)
- 10SM
05:55
Clear
9°F / -13°C 3°F / -16°C 78% 30.3 in
(1026 mb)
N 8.1 mph
(N 13 kph)
- 10SM
05:35
Clear
7°F / -14°C 3°F / -16°C 85% 30.3 in
(1026 mb)
N 10.4 mph
(N 17 kph)
- 10SM
05:15
Clear
9°F / -13°C 3°F / -16°C 78% 30.3 in
(1026 mb)
NE 3.5 mph
(NE 6 kph)
- 10SM
04:55
Clear
10°F / -12°C 3°F / -16°C 72% 30.3 in
(1026 mb)
N 4.6 mph
(N 7 kph)
- 10SM
04:35
Clear
10°F / -12°C 5°F / -15°C 79% 30.3 in
(1026 mb)
NNE 5.8 mph
(NNE 9 kph)
- 10SM
04:15
Clear
10°F / -12°C 5°F / -15°C 79% 30.3 in
(1026 mb)
N 9.2 mph
(N 15 kph)
- 10SM
03:55
Clear
10°F / -12°C 5°F / -15°C 79% 30.3 in
(1026 mb)
N 5.8 mph
(N 9 kph)
- 10SM
03:35
Clear
10°F / -12°C 5°F / -15°C 79% 30.3 in
(1026 mb)
N 5.8 mph
(N 9 kph)
- 10SM
03:15
Clear
12°F / -11°C 7°F / -14°C 79% 30.3 in
(1026 mb)
Calm - 10SM
02:55
Clear
14°F / -10°C 7°F / -14°C 73% 30.3 in
(1026 mb)
NNW 4.6 mph
(NNW 7 kph)
- 10SM
02:35
Clear
14°F / -10°C 7°F / -14°C 73% 30.3 in
(1026 mb)
NNW 5.8 mph
(NNW 9 kph)
- 10SM
02:15
Clear
18°F / -8°C 7°F / -14°C 62% 30.27 in
(1025 mb)
Calm - 10SM
01:55
Clear
14°F / -10°C 7°F / -14°C 73% 30.27 in
(1025 mb)
SSE 3.5 mph
(SSE 6 kph)
- 10SM
01:35
Clear
16°F / -9°C 9°F / -13°C 73% 30.27 in
(1025 mb)
NE 4.6 mph
(NE 7 kph)
- 10SM
01:15
Clear
18°F / -8°C 9°F / -13°C 68% 30.27 in
(1025 mb)
NE 6.9 mph
(NE 11 kph)
- 10SM
00:55
Clear
18°F / -8°C 9°F / -13°C 68% 30.27 in
(1025 mb)
N 12.7 mph
(N 20 kph)
- 10SM
00:35
Clear
18°F / -8°C 9°F / -13°C 68% 30.27 in
(1025 mb)
N 16.1 mph
(N 26 kph)
- 10SM
00:15
Clear
18°F / -8°C 9°F / -13°C 68% 30.27 in
(1025 mb)
N 16.1 mph
(N 26 kph)
- 10SM
Time Weather Temperature Dewpoint Humidity Pressure Winds Precip Visibility


Weather for websites

WeatherForYou.com, LLC is not responsible for any damages or problems caused by this service. Current weather conditions are obtained from the closest station including government and personal stations which may have varying degrees of accuracy. Weather forecasts are derived from the NOAA NDFD. Like all things, this site belongs to Jesus Christ... He just trusts me to maintain it. If you have any questions or comments email webmaster@weatherforyou.com

Copyright © 2014, WeatherForYou.com LLC. All rights reserved.